World > North America > United States > Texas   City of San Angelo, TX

San Angelo, Texas Regional Weather

Lat: 31.45N, Lon: 100.45W
Wx Zone: TXZ072
Feedback

San Angelo, TX Regional Weather

Expires:202002190700;;760150
ASUS44 KSJT 190615
RWRSJT
WEST CENTRAL TEXAS REGIONAL WEATHER ROUNDUP
NATIONAL WEATHER SERVICE SAN ANGELO TX
1200 AM CST WED FEB 19 2020

NOTE: "FAIR" INDICATES FEW OR NO CLOUDS BELOW 12,000 FEET WITH NO
SIGNIFICANT WEATHER AND/OR OBSTRUCTIONS TO VISIBILITY.


TXZ049-054-064>066-071>073-076>078-098-099-113-114-127-128-139-140-
154-155-168>170-190700
...LOCATIONS ACROSS WEST CENTRAL TEXAS...
  
CITY           SKY/WX    TMP DP  RH WIND       PRES   REMARKS
SAN ANGELO     CLEAR     49  35  58 NE9       30.26F                  
ABILENE        CLEAR     45  31  58 N8        30.31R                  
DYESS AFB      CLEAR     44  28  54 NE9       30.30R WCI  39          
JUNCTION       CLOUDY    48  45  89 CALM      30.25S                  
SWEETWATER     CLEAR     42  33  69 NE8       30.33R WCI  37          
BROWNWOOD      NOT AVBL                                               
COLEMAN        CLOUDY    46  36  66 N12       30.28R                  
SONORA         CLOUDY    50  34  53 N10G18    30.28R                  
OZONA          NOT AVBL                                               
BRADY          CLOUDY    50  34  53 NE15G21   30.24S                  
$$

TEXAS PANHANDLE/OKLAHOMA PANHANDLE
  
CITY           SKY/WX    TMP DP  RH WIND       PRES   REMARKS
AMARILLO       CLOUDY    36  21  54 E8        30.32S WCI  30          
BORGER         CLOUDY    38  18  44 SE7       30.35S WCI  33          
CANADIAN       PTCLDY    28  23  81 SW3       30.38S                  
DALHART        CLOUDY    35  19  52 SE13      30.30F WCI  26          
DUMAS          CLOUDY    32  18  55 E14       30.32S WCI  22          
GUYMON         NOT AVBL                                               
HEREFORD       CLOUDY    37  25  62 E3        30.33S                  
PAMPA          CLOUDY    35  20  55 SE7       30.36R WCI  29          
PERRYTON       CLOUDY    34  19  55 SE6       30.34  WCI  29          
$$

SOUTHERN PANHANDLE/SOUTH PLAINS/ROLLING PLAINS
  
CITY           SKY/WX    TMP DP  RH WIND       PRES   REMARKS
LUBBOCK        PTCLDY    33  22  63 NE8       30.31S WCI  26          
SNYDER         CLEAR     41  31  66 NE8       30.31  WCI  36          
CHILDRESS      CLEAR     35  22  58 NE7       30.38R WCI  29          
SEMINOLE       CLEAR     37  30  74 CALM      30.35F                  
$$

PERMIAN BASIN
  
CITY           SKY/WX    TMP DP  RH WIND       PRES   REMARKS
MIDLAND        CLEAR     44  33  65 NE9       30.29R WCI  39          
ODESSA         CLEAR     40  33  76 NE7       30.29S WCI  35          
WINK           CLEAR     43  33  68 E7        30.27F WCI  39          
$$

FAR WEST/SOUTHWEST MOUNTAINS/TRANS PECOS
  
CITY           SKY/WX    TMP DP  RH WIND       PRES   REMARKS
ALPINE         CLEAR     42  36  79 NE3       30.32R                  
DRYDEN         NOT AVBL                                               
EL PASO        MOCLDY    48  32  53 E7        30.15S                  
FORT STOCKTON  PTCLDY    44  35  70 E5        30.28R                  
GUADALUPE PASS CLOUDY    36  29  75 NE41      30.20R WCI  21          
MARFA          CLEAR     41  34  76 NE15      30.25R WCI  33          
PECOS          CLOUDY    48  33  55 E9        30.29S                  
$$

DALLAS/FORT WORTH METROPLEX
  
CITY           SKY/WX    TMP DP  RH WIND       PRES   REMARKS
DFW AIRPORT    CLOUDY    48  38  68 N10       30.29R                  
FTW MEACHAM    CLOUDY    48  36  63 NE17      30.30R                  
DAL-EXECUTIVE  CLOUDY    51  39  63 NE10      30.29R                  
GRAND PRAIRIE  CLOUDY    51  37  57 N12       30.31                   
ADDISON        CLOUDY    48  37  65 N9        30.33R                  
MESQUITE       CLOUDY    49  42  75 N12       30.30                   
LANCASTER      CLOUDY    50  41  70 NE8       30.30S                  
$$

NORTH CENTRAL TEXAS
  
CITY           SKY/WX    TMP DP  RH WIND       PRES   REMARKS
SHRMAN/DENISON CLEAR     43  32  66 NE8       30.34S WCI  38          
GAINESVILLE    CLEAR     42  30  63 NE5       30.36R WCI  39          
BRIDGEPORT     CLEAR     45  33  64 NE6       30.35R                  
DENTON         MOCLDY    46  35  65 NE10      30.33R                  
WAXAHACHIE     NOT AVBL                                               
GRANBURY       CLOUDY    52  37  57 N9G18     30.31S                  
$$

WESTERN NORTH TEXAS
  
CITY           SKY/WX    TMP DP  RH WIND       PRES   REMARKS
WICHITA FALLS  CLEAR     37  31  78 N10       30.36R WCI  30          
VERNON         CLEAR     36  29  78 N7        30.39  WCI  30          
BRECKENRIDGE   CLEAR     46  32  57 N5        30.31R                  
COMANCHE       CLOUDY    52  36  54 NE10G18   30.28S                  
$$

CENTRAL AND SOUTH CENTRAL TEXAS
  
CITY           SKY/WX    TMP DP  RH WIND       PRES   REMARKS
AUSTIN/BERGSTM LGT RAIN  50  47  89 N12       30.22R                  
WACO           PTCLDY    51  41  68 NE14      30.25R                  
HILLSBORO      CLOUDY    51  40  65 N14G22    30.26S                  
TEMPLE         LGT RAIN  48  45  89 N10       30.24R                  
KILLEEN-GRAY   CLEAR     48  43  81 NE15      30.22                   
FORT HOOD      LGT RAIN  49  43  81 NE14      30.23S                  
GEORGETOWN     CLOUDY    49  44  83 N10       30.25S                  
LAGO VISTA     CLOUDY    46  45  95 N6        30.23R                  
SAN MARCOS     CLOUDY    51  45  79 N16       30.21S                  
NEW BRAUNFELS  CLOUDY    53  42  66 N18G28    30.18S                  
RANDOLPH AFB   CLOUDY    53  42  68 N18G26    30.18                   
SAN ANTONIO    CLOUDY    52  41  66 N14G21    30.20R                  
STINSON        CLOUDY    53  42  66 N17G25    30.17R                  
PLEASANTON     NOT AVBL                                               
LA GRANGE      CLOUDY    53  49  87 N9        30.17F                  
GIDDINGS       LGT RAIN  50  48  93 N7        30.20F                  
$$

EAST TEXAS
  
CITY           SKY/WX    TMP DP  RH WIND       PRES   REMARKS
PARIS          CLOUDY    44  41  89 N7        30.31S                  
CLARKSVILLE    NOT AVBL                                               
TYLER          CLOUDY    48  42  80 NE12      30.25S                  
LONGVIEW       CLOUDY    48  42  80 NE10      30.26S                  
PALESTINE      DRIZZLE   49  48  95 NE8       30.23F                  
NACOGDOCHES    CLOUDY    49  49 100 VRB7      30.22F                  
$$

TEXAS HILL COUNTRY AND EDWARDS PLATEAU
  
CITY           SKY/WX    TMP DP  RH WIND       PRES   REMARKS
LLANO          MOCLDY    48  46  93 CALM      30.28F                  
HORSESHOE BAY  CLOUDY    48  46  93 N3        30.25S                  
KERRVILLE      CLOUDY    49  40  72 CALM      30.22S                  
FREDERICKSBRG  CLOUDY    48  38  70 NE9       30.24S                  
ROCKSPRINGS      N/A     45  41  87 NE16G23   30.23S WCI  37          
HONDO          CLOUDY    52  42  69 NE17G25   30.19R                  
UVALDE         CLOUDY    54  45  71 N7        30.20F                  
DEL RIO        CLOUDY    57  43  59 N9G18     30.21S                  
$$

SOUTHEAST TEXAS
  
CITY           SKY/WX    TMP DP  RH WIND       PRES   REMARKS
COLLEGE STN    LGT RAIN 117  50  11 N13       30.18F                  
CALDWELL       CLOUDY    50 N/A N/A N12       30.21S                  
CROCKETT       NOT AVBL                                               
BRENHAM        CLOUDY    53  51  94 N12       30.19S                  
HUNTSVILLE     LGT RAIN  54  52  93 VRB6      30.17S                  
CONROE         CLOUDY    57  54  89 N8        30.17R                  
HOUSTON BUSH   CLOUDY    60  55  83 N10       30.14R                  
HOUSTON HOBBY  CLOUDY    63  56  78 N13       30.12R                  
PERLAND        CLOUDY    66  58  75 N10       30.13S                  
WHARTON        CLOUDY    56  49  79 N16G22    30.15R                  
$$

THE UPPER TEXAS COAST
  
CITY           SKY/WX    TMP DP  RH WIND       PRES   REMARKS
ORANGE         FAIR      70  69  96 N3        30.13R FOG              
PORT ARTHUR    FAIR     
85b
 70  67  90 N7        30.10F                  
GALVESTON      FOG       67  66  97 N3        30.11R VSB 1/4          
ANGLETON       CLOUDY    64  60  87 N8        30.11S                  
BAY CITY       CLOUDY    62  58  87 N13       30.11S                  
$$

TEXAS COASTAL BEND, RIO GRANDE PLAINS DEEP SOUTH TEXAS
  
CITY           SKY/WX    TMP DP  RH WIND       PRES   REMARKS
VICTORIA       CLOUDY    57  49  74 N16       30.14S                  
BEEVILLE       NOT AVBL                                               
ROCKPORT       CLOUDY    60  54  80 N8        30.11S                  
PORT ARANSAS   CLOUDY    59  58  96 N15       30.12S                  
PORT LAVACA    CLOUDY    60  54  81 N14       30.14S                  
CORPUS CHRISTI CLOUDY    57  55  93 N18       30.12R                  
KINGSVILLE NAS LGT RAIN  57  54  89 N18G28    30.11                   
COTULLA        CLOUDY    58  48  69 NE10      30.16S                  
LAREDO         CLOUDY    60  52  74 N15       30.13R                  
BROWNSVILLE    CLOUDY    71  68  90 NE5       30.04                   
PORT ISABEL    CLOUDY    73  70  90 E5        30.04R                  
HEBBRONVILLE   LGT RAIN  56  55  95 NE13      30.12R                  
MCALLEN        CLOUDY    76  69  79 E8        30.04R                  
WESLACO        NOT AVBL                                               
FALFURRIAS     CLOUDY    64  60  84 N13G21    30.10R                  
EDINBURG       CLOUDY    73  69  87 E8        30.05S                  
$$
  

SKY/WX - Weather  TMP - Temperature  DP - Dew Point  RH - Relative Humidity
WIND - Wind Direction/Speed PRES - Barometric Pressure VSB - Visibility
WCI - Wind Chill Index E13G22 Wind - East Wind 13 mph/Gusts of 22 mph
Texas Weather Map
What is UTC time?